Orbital Elements at Epoch 2459000.5 (2020-May-31.0) TDB
Reference: JPL 21 (heliocentric ecliptic J2000)
Element | Value | Uncertainty (1-sigma) | Units |
e | .06903196870331239 | 4.4341e-08 | |
a | 2.648678667707681 | 1.5494e-08 | au |
q | 2.465835164813353 | 1.1906e-07 | au |
i | 21.65757930000547 | 6.5923e-06 | deg |
node | 328.286937366686 | 1.1963e-05 | deg |
peri | 85.94525855427896 | 5.7876e-05 | deg |
M | 323.8795261561265 | 5.3749e-05 | deg |
tp | 2459158.476786632721 (2020-Nov-04.97678663) | 0.00023508 | TDB |
period | 1574.498812878279 4.31 | 1.3816e-05 3.783e-08 | d yr |
n | .2286441863629597 | 2.0063e-09 | deg/d |
Q | 2.831522170602009 | 1.6564e-08 | au |
|
| | Orbit Determination Parameters
Additional Information
|